[[{"header":{"parameterUnit":"m.s-1","parameterCategory":1,"la1":30.2991,"la2":30.254,"lo1":-89.0895,"lo2":-89.0444,"dy":0.0017,"dx":0.0017,"nx":28,"ny":28,"refTime":"2024-06-26T03:00:00:Z","depth":0,"parameterNumber":2,"parameterNumberName":"U-component_of_WINDS"},"data":[0,0,0,0,0,0,0,0,0,0,0,0,0,0,0,0,0,0,0,0,0,0,0,0,0,0,0,0,0,0,0,0,0,0,0,0,0,0,0,0,0,0,0,0,0,0,0,0,0,0,0,0,0,0,0,0,0,0,5.1055,5.1056,0,5.1213,5.1214,5.1216,5.1124,5.1119,5.1115,5.111,5.1276,5.1285,5.1293,0,0,0,0,0,0,0,0,0,0,0,0,0,5.0675,5.0683,5.1055,5.1057,5.1059,5.1212,5.1214,5.1217,5.1124,5.1119,5.1114,5.1108,5.1273,5.1284,5.1294,0,0,0,0,0,0,0,0,0,0,0,0,0,5.0838,5.0685,5.1054,5.1031,5.103,5.1212,5.1214,5.1217,5.1126,5.1119,5.1112,5.1106,5.127,5.1283,5.1295,5.151,0,0,5.1335,5.134,0,0,0,0,0,0,0,0,5.0828,5.0852,5.1032,5.1033,5.1033,5.1141,5.1141,5.1315,5.1127,5.109,5.111,5.1103,5.1237,5.1252,5.1297,5.1518,5.1525,5.1336,5.1344,5.1349,5.1353,0,0,0,0,0,0,0,5.0817,5.0844,5.1117,5.1035,5.1035,5.1013,5.1029,5.1174,5.1199,5.1092,5.1086,5.1106,5.1236,5.1285,5.13,5.1527,5.1336,5.1347,5.1355,5.136,5.1929,5.1936,0,0,0,0,0,0,5.0807,5.0835,5.1112,5.1122,5.0912,5.1026,5.1043,5.1113,5.1198,5.1204,5.1111,5.1101,5.1266,5.1285,5.1306,5.156,5.1349,5.1361,5.1369,5.1922,5.1931,5.1938,0,0,0,0,0,0,5.08,5.0833,5.1106,5.0977,5.101,5.1039,5.1119,5.112,5.1168,5.1212,5.1216,5.1156,5.1261,5.1287,5.1459,5.1564,5.1367,5.1379,5.1913,5.1924,5.1935,5.2072,0,0,0,0,0,0,5.0789,5.0831,5.0912,5.0979,5.1017,5.1256,5.1126,5.1128,5.1191,5.1178,5.1255,5.1261,5.1258,5.144,5.1472,5.1579,5.1389,5.1904,5.1918,5.1931,5.2058,5.2086,5.2111,0,0,0,0,0,5.0776,5.0946,5.0917,5.0951,5.112,5.1262,5.1284,5.1276,5.12,5.1282,5.1309,5.1259,5.1548,5.1458,5.1493,5.1606,5.1897,5.1914,5.193,5.2046,5.2081,5.211,0,0,0,0,0,0,5.0892,5.0955,5.0923,5.112,5.1186,5.1246,5.135,5.1313,5.1404,5.1389,5.1375,5.1394,5.1572,5.1606,5.1505,5.1816,5.1711,5.1735,5.1787,5.182,5.1846,5.1833,5.14,0,0,0,0,0,5.0941,5.1051,5.1099,5.1268,5.1303,5.1321,5.1383,5.137,5.144,5.1468,5.1508,5.1578,5.1683,5.1754,5.1854,5.2063,5.2077,5.2157,5.2183,5.2205,5.2226,5.2336,5.2372,5.1993,5.1993,5.1993,0,0,5.1042,5.109,5.116,5.1293,5.1343,5.1457,5.1346,5.1472,5.1556,5.1487,5.165,5.1682,5.1759,5.1949,5.2035,5.1984,5.2333,5.2226,5.2243,5.2252,5.2357,5.2393,5.2424,5.2004,5.2002,5.2,0,0,5.1285,5.1333,5.1477,5.1529,5.1605,5.1616,5.1651,5.1717,5.1734,5.1898,5.1847,5.1948,5.2132,5.2188,5.2241,5.2503,5.2459,5.2536,5.2673,5.278,5.281,5.2836,5.2928,5.2961,5.2557,5.2557,5.2557,0,5.1402,5.1571,5.1557,5.1686,5.1745,5.1686,5.1832,5.1884,5.199,5.2032,5.1973,5.22,5.2248,5.2449,5.2513,5.2558,5.2597,5.2527,5.2807,5.2833,5.2857,5.2944,5.2979,5.2566,5.2565,5.2564,5.2563,0,5.171,5.1828,5.1936,5.2037,5.2108,5.2246,5.2253,5.2327,5.2308,5.2325,5.2491,5.2546,5.2655,5.2702,5.2686,5.2901,5.2866,5.2808,5.2701,5.2902,5.2984,5.3017,5.2578,5.2575,5.2573,5.257,0,0,5.2031,5.2121,5.2161,5.2205,5.2284,5.2375,5.251,5.2614,5.2677,5.2753,5.2864,5.302,5.2965,5.3025,5.3014,5.3109,5.331,5.3038,5.3039,5.3085,5.3548,5.359,5.3629,5.3282,5.3288,5.3294,5.3541,0,5.2277,5.251,5.25,5.2718,5.2825,5.277,5.2887,5.2948,5.2967,5.3062,5.3083,5.3193,5.3113,5.3148,5.324,5.3266,5.3403,5.3249,5.3385,5.339,5.3366,5.3672,5.3718,5.3949,5.3573,5.3578,5.3582,0,5.2595,5.2678,5.2906,5.2966,5.3011,5.3116,5.321,5.3302,5.337,5.3377,5.3443,5.3416,5.3552,5.3442,5.3629,5.3524,5.3579,5.3601,5.3609,5.3621,5.3497,5.369,5.4022,5.4056,5.3632,5.3628,5.3625,0,5.2804,5.2973,5.313,5.317,5.3246,5.332,5.3355,5.3416,5.3479,5.3562,5.3602,5.3701,5.3755,5.3832,5.3832,5.3753,5.402,5.3911,5.4029,5.4029,5.4087,5.4083,5.4431,5.4126,5.4126,5.4125,5.4124,0,5.3079,5.322,5.3224,5.3321,5.3477,5.3465,5.362,5.3648,5.3702,5.3803,5.3763,5.3858,5.3854,5.3952,5.3953,5.4106,5.4131,5.414,5.4139,5.4143,5.4142,5.4178,5.4162,5.4134,5.4132,5.413,5.4129,0,5.3338,5.3347,5.3514,5.3571,5.3588,5.3701,5.3749,5.3841,5.3856,5.3984,5.4013,5.4037,5.4149,5.4157,5.4289,5.4289,5.4474,5.4456,5.445,5.4446,5.4563,5.4551,5.4945,5.4996,5.466,5.4663,5.4666,0,5.3512,5.3619,5.3686,5.375,5.3788,5.3892,5.3955,5.3947,5.4015,5.4099,5.4181,5.4288,5.4374,5.4556,5.4585,5.4684,5.4667,5.4798,5.4682,5.4682,5.4667,5.4659,5.4669,5.4821,5.4824,5.4827,5.483,0,5.3819,5.3818,5.3909,5.4003,5.4079,5.4152,5.4221,5.4276,5.4276,5.4354,5.4467,5.4533,5.4665,5.4772,5.4868,5.4905,5.4868,5.4866,5.4898,5.4903,5.4894,5.4898,5.451,5.4857,5.4854,5.4852,5.4851,5.485,5.404,5.4131,5.4191,5.4295,5.4345,5.4409,5.4497,5.4522,5.4615,5.472,5.471,5.4835,5.4899,5.5024,5.5068,5.5166,5.5121,5.5169,5.518,5.5192,5.5203,5.488,5.5184,5.5183,5.5182,5.5182,5.5181,0,5.4343,5.4378,5.4473,5.4569,5.465,5.4606,5.4679,5.475,5.486,5.4921,5.5006,5.5135,5.5238,5.5274,5.5375,5.5446,5.5431,5.5472,5.5466,5.5475,5.5238,5.5199,5.5482,5.5482,5.5482,5.5482,5.5482,5.5482,5.451,5.4661,5.4666,5.4841,5.4876,5.4996,5.5042,5.5101,5.5149,5.5294,5.5379,5.5402,5.5453,5.5556,5.5649,5.5657,5.5695,5.5743,5.5744,5.5522,5.5492,5.5463,5.5426,5.5752,5.5752,5.5972,5.5974,5.5976]},{"header":{"parameterUnit":"m.s-1","parameterCategory":1,"la1":30.2991,"la2":30.254,"lo1":-89.0895,"lo2":-89.0444,"dy":0.0017,"dx":0.0017,"nx":28,"ny":28,"refTime":"2024-06-26T03:00:00:Z","depth":0,"parameterNumber":3,"parameterNumberName":"V-component_of_WINDS"},"data":[0,0,0,0,0,0,0,0,0,0,0,0,0,0,0,0,0,0,0,0,0,0,0,0,0,0,0,0,0,0,0,0,0,0,0,0,0,0,0,0,0,0,0,0,0,0,0,0,0,0,0,0,0,0,0,0,0,0,1.4534,1.4535,0,1.4585,1.4586,1.4586,1.4558,1.4556,1.4555,1.4553,1.4605,1.4608,1.461,0,0,0,0,0,0,0,0,0,0,0,0,0,1.441,1.4412,1.4534,1.4535,1.4535,1.4585,1.4586,1.4586,1.4558,1.4556,1.4554,1.4553,1.4604,1.4607,1.4611,0,0,0,0,0,0,0,0,0,0,0,0,0,1.4462,1.4413,1.4534,1.4527,1.4527,1.4585,1.4586,1.4587,1.4558,1.4556,1.4554,1.4552,1.4603,1.4607,1.4611,1.4679,0,0,1.4623,1.4625,0,0,0,0,0,0,0,0,1.4459,1.4467,1.4527,1.4527,1.4527,1.4563,1.4561,1.4618,1.4559,1.4546,1.4553,1.4551,1.4593,1.4597,1.4612,1.4681,1.4683,1.4624,1.4626,1.4628,1.4629,0,0,0,0,0,0,0,1.4456,1.4465,1.4554,1.4528,1.4528,1.4521,1.4526,1.4571,1.4581,1.4547,1.4545,1.4552,1.4592,1.4608,1.4613,1.4684,1.4624,1.4627,1.463,1.4631,1.481,1.4812,0,0,0,0,0,0,1.4453,1.4462,1.4553,1.4556,1.4488,1.4525,1.453,1.4554,1.458,1.4582,1.4553,1.455,1.4602,1.4608,1.4614,1.4695,1.4628,1.4632,1.4634,1.4808,1.4811,1.4813,0,0,0,0,0,0,1.445,1.4461,1.455,1.4508,1.4519,1.4529,1.4555,1.4556,1.4571,1.4585,1.4586,1.4568,1.4601,1.4609,1.4663,1.4696,1.4634,1.4637,1.4805,1.4809,1.4812,1.4856,0,0,0,0,0,0,1.4447,1.446,1.4487,1.4509,1.4521,1.4599,1.4557,1.4558,1.4578,1.4575,1.4599,1.4601,1.46,1.4657,1.4667,1.4701,1.464,1.4802,1.4807,1.4811,1.4852,1.4861,1.4869,0,0,0,0,0,1.4442,1.4497,1.4488,1.4499,1.4555,1.4601,1.4608,1.4605,1.4581,1.4607,1.4616,1.46,1.4691,1.4663,1.4673,1.4709,1.48,1.4805,1.481,1.4848,1.4859,1.4868,0,0,0,0,0,0,1.4479,1.45,1.449,1.4554,1.4576,1.4596,1.4629,1.4617,1.4646,1.4641,1.4637,1.4642,1.4698,1.4709,1.4677,1.4775,1.4742,1.4749,1.4766,1.4777,1.4785,1.4782,1.4644,0,0,0,0,0,1.4494,1.453,1.4547,1.4601,1.4613,1.4619,1.4639,1.4635,1.4657,1.4666,1.4679,1.4701,1.4734,1.4756,1.4787,1.4853,1.4857,1.4883,1.4891,1.4898,1.4905,1.4939,1.495,1.483,1.483,1.483,0,0,1.4526,1.4543,1.4566,1.4609,1.4625,1.4662,1.4627,1.4668,1.4695,1.4672,1.4724,1.4734,1.4758,1.4818,1.4845,1.4828,1.4938,1.4904,1.491,1.4913,1.4946,1.4957,1.4967,1.4834,1.4833,1.4833,0,0,1.4604,1.462,1.4667,1.4684,1.4709,1.4713,1.4724,1.4745,1.4751,1.4803,1.4786,1.4818,1.4876,1.4893,1.491,1.4992,1.4978,1.5003,1.5046,1.508,1.5089,1.5098,1.5127,1.5137,1.5009,1.5009,1.5009,0,1.4641,1.4696,1.4693,1.4734,1.4754,1.4735,1.4782,1.4798,1.4832,1.4846,1.4827,1.4898,1.4913,1.4976,1.4996,1.501,1.5022,1.5,1.5088,1.5097,1.5105,1.5132,1.5143,1.5012,1.5012,1.5012,1.5011,0,1.474,1.4779,1.4813,1.4847,1.487,1.4914,1.4916,1.494,1.4934,1.4939,1.4991,1.5008,1.5042,1.5057,1.5051,1.5119,1.5108,1.5089,1.5055,1.5119,1.5145,1.5155,1.5016,1.5015,1.5014,1.5014,0,0,1.4843,1.4873,1.4886,1.49,1.4926,1.4955,1.4998,1.5031,1.5051,1.5075,1.511,1.5159,1.5141,1.516,1.5156,1.5185,1.5249,1.5162,1.5163,1.5178,1.5324,1.5338,1.5351,1.524,1.5242,1.5243,1.5322,0,1.4922,1.4997,1.4995,1.5065,1.51,1.5082,1.5119,1.5138,1.5144,1.5174,1.518,1.5214,1.5188,1.5199,1.5228,1.5235,1.5278,1.523,1.5272,1.5274,1.5267,1.5364,1.538,1.5453,1.5332,1.5334,1.5335,0,1.5025,1.5052,1.5125,1.5145,1.5159,1.5193,1.5223,1.5252,1.5273,1.5275,1.5295,1.5286,1.5328,1.5293,1.5351,1.5318,1.5335,1.5341,1.5344,1.5348,1.5308,1.5371,1.5476,1.5487,1.5351,1.5349,1.5348,0,1.5092,1.5147,1.5198,1.521,1.5235,1.5258,1.527,1.5289,1.5308,1.5334,1.5347,1.5377,1.5394,1.5417,1.5416,1.5391,1.5475,1.5439,1.5477,1.5477,1.5496,1.5495,1.5606,1.5507,1.5507,1.5506,1.5506,0,1.5181,1.5226,1.5228,1.5259,1.5309,1.5305,1.5355,1.5363,1.538,1.5412,1.5398,1.5429,1.5425,1.5456,1.5455,1.5503,1.551,1.5513,1.5512,1.5514,1.5514,1.5525,1.552,1.5509,1.5509,1.5508,1.5508,0,1.5264,1.5268,1.5322,1.534,1.5345,1.5382,1.5397,1.5426,1.543,1.5471,1.548,1.5486,1.5521,1.5522,1.5562,1.5561,1.5619,1.5613,1.5613,1.5611,1.5649,1.5645,1.5771,1.5787,1.5678,1.5679,1.568,0,1.5321,1.5355,1.5377,1.5398,1.541,1.5444,1.5464,1.5461,1.5482,1.5508,1.5534,1.5567,1.5594,1.565,1.5658,1.5688,1.5682,1.5724,1.5686,1.5687,1.5682,1.568,1.5683,1.5731,1.5733,1.5734,1.5734,0,1.5421,1.542,1.545,1.548,1.5504,1.5528,1.555,1.5567,1.5566,1.5591,1.5626,1.5647,1.5687,1.572,1.5749,1.576,1.5747,1.5746,1.5756,1.5759,1.5757,1.5758,1.5633,1.5743,1.5742,1.5742,1.5741,1.5741,1.5492,1.5522,1.5542,1.5575,1.5591,1.5611,1.5639,1.5647,1.5676,1.5709,1.5705,1.5744,1.5763,1.5801,1.5814,1.5844,1.5829,1.5844,1.5848,1.5852,1.5856,1.5752,1.5849,1.5849,1.5849,1.5848,1.5848,0,1.5591,1.5602,1.5633,1.5664,1.569,1.5675,1.5698,1.5721,1.5756,1.5775,1.5801,1.5841,1.5873,1.5882,1.5913,1.5935,1.593,1.5943,1.5941,1.5944,1.5867,1.5855,1.5947,1.5947,1.5947,1.5947,1.5947,1.5947,1.5645,1.5694,1.5696,1.5753,1.5764,1.5802,1.5816,1.5835,1.585,1.5895,1.5922,1.5928,1.5943,1.5974,1.6002,1.6004,1.6016,1.6032,1.6031,1.5959,1.5949,1.594,1.5929,1.6034,1.6034,1.6105,1.6106,1.6106]}]]